Location: ScottNC Observatory
(36.0892°N, 80.4832°W)
Time: 06:53:31
(UTC-05:00)

Tiangong 2 - Visible Passes

Search period start: 19 November 2018 00:00
Search period end: 29 November 2018 00:00
Orbit: 382 x 393 km, 42.8° (Epoch: 19 November)

Date Brightness Start Highest point End Pass type
(mag) Time Alt. Az. Time Alt. Az. Time Alt. Az.
21 Nov 4.6 06:19:02 10° SSE 06:19:57 11° SE 06:20:50 10° ESE visible
23 Nov 3.6 05:56:48 10° SSW 05:59:19 22° SE 06:01:52 10° E visible
24 Nov 4.2 04:59:52 10° SSE 05:00:55 11° SE 05:02:04 10° ESE visible
24 Nov 1.2 06:34:08 10° WSW 06:37:19 83° SSE 06:40:32 10° ENE visible
25 Nov 2.1 05:37:21 25° SSW 05:38:46 43° SSE 05:41:50 10° ENE visible
26 Nov 4.4 04:42:12 14° E 04:42:12 14° E 04:42:52 10° E visible
26 Nov 1.3 06:14:31 16° W 06:16:55 54° NNW 06:20:05 10° ENE visible
27 Nov 2.1 05:19:09 45° ENE 05:19:09 45° ENE 05:21:28 10° ENE visible
28 Nov 1.9 05:55:56 31° NW 05:56:34 35° NNW 05:59:34 10° NE visible
